SCP
1 1 1 2 2 2 2 2 1 1 1 1 1 1 1 1 0 0 0 0 0 0 0 0 0 0 0 0 0 0 0 0 0 0 0 0 0 0 0 0 0 0 0
2 2 2 2 2 2 2 2 2 1 1 1 1 1 1 1 0 0 1 1 1 0 0 0 0 0 0 0 0 0 0 0 0 0 0 0 0 0 0 0 0 0 0
2 2 2 2 2 2 2 2 2 2 1 1 1 1 1 1 1 1 1 1 1 1 1 1 0 0 0 0 0 0 0 0 0 0 0 0 0 0 0 0 0 0 0
2 2 2 2 2 2 2 2 2 2 1 1 1 1 1 1 1 1 1 1 1 1 1 1 1 0 0 0 0 0 0 0 0 0 0 0 0 0 0 0 0 0 0
2 2 2 2 2 2 2 2 2 2 2 1 1 1 1 1 1 1 1 1 1 1 1 1 1 1 0 0 0 0 0 0 0 0 0 0 0 0 0 0 0 0 0
2 2 2 2 2 2 2 2 2 2 2 2 1 1 1 1 1 1 1 1 1 1 1 1 1 1 1 1 1 1 0 0 0 0 0 0 0 0 0 0 0 0 0
2 2 2 3 2 2 2 2 2 2 2 2 1 1 1 1 1 1 1 1 1 1 1 1 1 1 1 1 1 1 1 1 0 0 0 0 0 0 0 0 0 0 0
1 2 2 2 2 2 2 3 3 3 2 2 2 1 1 1 1 1 1 1 1 1 1 1 1 1 1 1 1 1 1 1 1 0 0 0 0 0 0 0 0 0 0
1 1 2 2 2 2 3 3 3 3 2 2 2 2 1 1 1 1 1 1 1 1 1 1 1 1 1 1 0 0 0 1 0 0 0 0 0 0 0 0 0 0 0
1 1 1 2 2 2 3 3 3 3 3 2 2 2 1 1 1 1 1 1 1 1 1 1 1 1 1 1 0 0 0 0 0 0 0 0 0 0 0 0 0 0 0
1 1 1 2 2 2 2 3 3 3 2 2 2 2 2 2 2 2 1 1 1 1 1 1 1 1 1 1 1 0 0 0 0 0 0 0 0 0 0 0 0 0 0
1 1 2 2 2 2 2 3 3 2 2 2 2 2 2 2 2 2 1 1 1 1 1 1 1 1 1 1 1 0 0 0 0 0 0 0 0 0 0 0 0 0 0
1 1 2 2 2 2 2 2 2 2 2 2 2 2 2 2 1 1 1 1 1 1 1 1 1 1 1 1 1 1 0 0 0 0 0 0 0 0 0 0 0 0 0
1 2 2 2 2 2 3 2 2 2 2 2 2 2 2 2 1 1 1 1 1 1 1 1 1 1 1 1 1 1 1 1 0 0 0 0 0 0 0 0 0 0 0
1 2 2 2 2 2 2 2 2 2 2 2 2 2 2 1 1 1 1 1 1 1 1 1 1 1 0 0 0 0 1 1 1 0 0 0 0 0 0 0 0 0 0
1 2 2 2 2 2 2 2 2 2 2 2 2 2 1 1 1 1 1 1 1 1 1 1 1 0 0 0 0 0 0 1 0 0 0 0 0 0 0 0 0 0 0
1 2 2 2 2 2 2 2 2 2 2 2 2 1 1 1 1 1 1 1 1 1 1 1 1 0 0 0 0 0 0 0 0 0 0 0 0 0 0 0 0 0 0
2 2 2 3 3 2 2 2 2 2 2 1 1 1 1 1 1 1 1 1 1 1 1 1 1 0 0 0 0 0 0 0 0 0 0 0 0 0 0 0 0 0 0
2 2 3 3 3 2 2 2 2 1 1 1 1 1 1 1 1 1 1 1 1 1 1 1 1 0 0 0 0 0 0 0 0 0 0 0 0 0 0 0 0 0 0
3 3 3 3 3 2 2 2 1 1 1 1 1 1 1 1 1 1 1 1 1 1 1 1 1 0 0 0 0 0 0 0 0 0 0 0 0 0 0 0 0 0 0
3 3 3 3 2 2 2 1 1 1 1 1 1 1 1 1 1 1 1 1 1 1 1 1 0 0 0 0 0 0 0 0 0 0 0 0 0 0 0 0 0 0 0
3 2 2 2 2 2 2 1 1 1 1 1 1 1 1 1 1 1 1 1 1 1 0 0 0 0 0 0 0 0 0 0 0 0 0 0 0 0 0 0 0 0 0
2 2 2 2 2 1 1 1 1 1 1 1 1 1 1 1 1 1 1 1 0 0 0 0 0 0 0 0 0 0 0 0 0 0 0 0 0 0 0 0 0 0 0
2 2 2 1 1 1 1 1 1 1 1 1 1 1 1 1 1 0 0 0 0 0 0 0 0 0 0 0 0 0 0 0 0 0 0 0 0 0 0 0 0 0 0
2 1 1 1 1 1 1 1 1 1 0 0 0 0 0 0 0 0 0 0 0 0 0 0 0 0 0 0 0 0 0 0 0 0 0 0 0 0 0 0 0 0 0
1 1 1 1 1 1 1 1 1 0 0 0 0 0 0 0 0 0 0 0 0 0 0 0 0 0 0 0 0 0 0 0 0 0 0 0 0 0 0 0 0 0 0
Wind_Speed
16 15 15 14 14 12 11 10 9 8 6 5 5 4 4 3 2 3 4 5 4 4 3 2 3 3 2 2 3 2 2 3 2 2 2 3 4 4 4 4 4 5 5
16 16 14 14 14 12 12 11 10 9 8 6 4 4 4 3 4 3 5 5 5 5 5 4 3 4 2 2 3 2 2 3 2 2 2 2 2 2 5 4 4 5 4
17 17 16 14 14 14 13 12 11 10 9 7 5 4 3 2 3 4 4 5 6 6 5 4 4 3 4 3 4 4 4 3 2 2 2 1 2 1 2 4 4 3 2
17 17 16 15 14 14 13 11 11 10 9 8 7 7 6 5 5 4 4 6 6 6 6 5 5 4 4 3 5 5 4 4 3 2 2 3 1 1 2 2 1 2 3
15 17 17 15 14 14 13 11 10 10 10 9 8 7 6 5 3 4 5 5 5 6 6 6 5 5 4 4 4 3 3 3 3 3 2 3 2 3 2 3 2 2 2
14 15 16 14 13 13 12 12 11 10 10 10 9 8 7 6 5 6 5 5 4 5 6 6 5 5 5 4 4 3 4 3 3 3 2 2 2 2 3 4 3 3 3
13 14 15 15 13 12 12 11 12 10 10 10 9 8 7 7 7 6 5 5 4 4 5 6 5 4 5 5 4 4 4 5 5 4 3 3 3 2 2 3 3 3 2
11 13 14 14 13 13 12 11 12 11 10 10 8 7 7 6 6 6 5 5 4 4 5 5 5 5 5 6 5 4 5 4 4 5 4 3 3 2 2 2 2 3 2
9 11 13 13 13 13 12 12 12 10 10 9 8 7 7 6 6 5 5 4 4 4 5 5 5 5 5 5 5 4 4 4 4 4 4 3 3 2 2 1 1 2 3
8 10 10 11 10 11 10 10 10 10 9 9 8 7 7 6 4 4 5 4 4 3 3 4 3 4 4 4 4 3 3 3 3 3 3 3 3 2 2 2 2 2 2
8 8 8 9 9 9 10 9 9 9 8 8 7 5 6 6 5 4 3 3 3 3 2 3 3 3 3 2 2 2 2 3 3 3 3 3 3 2 2 2 2 2 2
6 7 8 8 7 7 8 9 8 8 8 7 6 5 4 4 4 4 3 3 3 2 2 2 2 2 2 2 2 2 1 1 1 1 1 2 1 1 1 1 1 1 1
6 6 6 6 6 6 6 7 7 7 7 6 6 4 3 3 3 3 3 3 2 2 2 2 2 1 1 1 1 0 0 1 0 1 1 1 1 1 1 1 1 1 1
6 6 6 6 5 5 4 5 5 6 6 5 5 4 3 3 3 2 2 2 2 2 2 2 2 2 1 2 2 1 1 2 2 2 2 2 3 2 2 1 2 2 1
6 7 7 6 6 5 4 4 4 5 5 5 5 4 4 3 3 3 3 3 3 3 3 2 2 2 2 2 2 2 2 3 3 4 4 6 8 8 5 3 3 2 2
7 7 7 7 6 5 5 5 5 5 5 5 5 5 4 4 3 3 4 3 3 4 4 4 4 4 3 4 5 3 3 3 4 4 5 5 7 9 10 10 10 8 4
7 7 7 7 6 6 6 6 6 6 6 6 6 5 5 4 4 4 5 5 5 5 5 5 5 6 6 7 7 6 4 5 5 5 4 5 6 6 6 7 8 9 10
8 8 8 8 7 7 8 8 7 7 7 6 6 5 6 5 5 6 6 5 5 5 5 6 6 6 7 8 7 6 5 6 7 7 6 6 6 6 5 6 6 7 7
8 8 9 9 8 8 9 9 8 7 7 6 6 6 6 6 6 6 6 5 6 6 6 6 6 6 6 8 7 5 5 6 7 7 8 7 6 8 7 5 5 5 5
9 9 10 10 9 8 9 9 8 8 7 7 7 7 6 6 7 7 7 6 6 6 6 7 7 7 7 8 8 6 4 5 5 6 7 10 8 8 7 4 4 4 3
11 10 10 9 8 9 9 9 9 8 7 8 7 7 7 7 7 7 6 6 6 7 7 7 7 7 7 8 9 8 4 5 5 5 5 5 8 8 7 5 3 3 1
11 11 10 9 8 8 9 9 9 8 8 8 8 7 6 6 6 6 6 6 6 7 6 6 6 6 6 7 9 10 9 7 5 5 4 4 6 6 5 4 5 5 4
10 10 10 10 8 8 9 10 8 8 8 8 7 7 7 6 6 5 5 5 4 5 5 5 5 5 5 6 10 10 9 8 5 4 5 4 4 3 4 5 6 5 3
10 10 10 10 9 8 8 9 8 7 8 8 7 6 7 7 7 6 5 5 4 4 4 4 5 5 5 4 4 4 5 6 5 4 4 3 3 3 4 4 3 3 4
9 9 9 10 9 9 8 8 7 7 8 8 6 6 7 9 9 9 8 8 7 6 5 5 5 5 5 4 4 3 3 3 3 2 2 2 2 3 2 3 3 3 3
9 9 10 10 9 8 8 7 7 7 7 6 5 5 6 7 8 8 9 15 12 14 14 11 8 7 7 5 6 7 6 5 4 3 3 3 3 3 3 3 3 3 4
Wind_Direction
176 169 171 168 162 160 161 164 172 164 166 172 180 185 179 178 183 189 164 172 197 188 206 220 174 216 220 197 188 187 205 226 231 253 265 262 248 222 211 216 213 213 205
174 170 173 171 167 166 167 170 176 173 180 181 184 185 173 180 190 198 170 183 196 198 203 213 207 206 214 217 220 206 228 244 215 223 250 257 260 250 227 209 212 217 207
175 173 175 176 174 174 175 178 179 177 186 181 177 187 167 197 193 182 182 194 196 204 219 201 220 215 215 205 213 214 219 243 250 223 223 252 255 286 256 227 226 209 199
175 174 176 179 180 178 178 177 176 178 183 184 187 189 190 199 201 188 190 194 200 206 210 211 216 223 233 211 216 214 214 222 246 243 223 233 258 266 299 281 251 224 225
177 174 179 179 180 180 178 177 175 181 183 190 192 197 203 204 203 195 196 196 200 210 213 208 211 217 230 228 233 224 220 222 232 246 233 233 237 223 231 264 267 256 238
177 173 175 172 178 179 178 176 176 183 184 191 196 198 205 205 205 204 197 198 202 209 215 214 205 212 224 229 231 226 223 230 243 258 262 244 231 226 225 246 261 260 246
176 170 169 170 175 179 177 174 174 182 185 191 198 197 201 206 212 211 204 201 209 209 211 216 207 215 223 224 225 222 225 223 229 237 250 256 257 253 248 253 267 272 276
172 171 169 169 176 179 177 175 174 180 185 190 195 196 200 207 212 211 211 202 211 221 208 206 207 216 224 227 220 225 225 223 225 238 242 254 264 266 263 258 270 283 290
171 167 168 170 177 177 177 177 174 177 182 188 191 194 200 209 214 204 207 213 210 222 205 203 210 214 220 228 222 224 226 219 221 233 236 245 258 263 275 276 255 252 270
168 166 167 167 167 169 172 171 170 175 180 186 193 196 198 207 210 203 201 209 212 226 211 196 208 221 223 226 227 230 227 220 226 228 234 241 252 247 248 255 252 240 246
166 162 159 153 154 162 163 162 167 168 176 188 191 195 193 198 200 199 205 204 208 212 205 189 207 212 215 214 219 232 226 227 237 241 228 236 249 253 259 255 244 239 236
138 142 138 138 144 152 159 164 170 171 174 179 178 186 186 182 186 193 200 198 199 197 190 174 180 185 194 196 200 226 223 219 232 243 241 257 256 254 281 295 296 269 239
112 120 121 128 135 146 149 155 163 166 166 166 169 174 173 168 177 185 181 181 178 173 160 139 138 158 171 152 133 159 165 139 84 36 54 357 23 22 17 6 340 321 301
119 121 121 124 128 130 130 139 152 151 150 153 158 153 147 148 156 150 140 145 153 152 138 130 133 131 126 113 109 110 89 77 70 59 54 51 54 37 33 34 13 8 15
131 128 128 126 130 131 129 130 128 122 130 135 136 132 128 127 128 127 124 122 125 125 115 117 104 95 88 72 82 102 97 89 82 71 64 64 70 61 51 49 27 18 29
136 129 126 125 128 128 127 119 108 114 119 125 122 120 122 120 119 114 105 103 97 93 95 91 83 75 71 54 59 67 72 75 75 70 67 76 72 67 63 59 52 49 49
136 130 125 122 119 119 116 115 108 116 115 112 111 115 115 114 109 108 99 94 90 87 84 83 85 80 55 53 62 64 71 70 65 63 56 58 60 61 61 59 57 54 52
131 130 126 122 117 114 112 106 104 104 106 105 101 100 104 101 97 96 93 90 87 83 80 78 78 76 56 48 54 62 76 75 69 62 55 58 52 45 54 61 59 56 48
120 120 120 118 113 112 112 110 109 106 104 100 97 92 94 97 97 97 94 90 89 86 83 82 80 77 59 44 49 66 85 81 74 66 59 59 56 37 52 69 70 68 61
113 113 112 112 110 109 110 109 106 101 97 93 91 92 94 95 93 95 96 93 92 90 86 78 71 73 65 46 50 64 94 91 83 75 68 60 55 42 48 68 71 68 55
110 112 110 108 105 107 107 105 102 96 94 94 90 90 91 94 95 98 99 100 98 94 89 84 76 70 65 58 53 58 76 87 87 82 72 57 52 52 48 51 61 63 41
116 114 109 105 106 110 109 106 102 101 100 97 96 95 91 91 96 101 101 104 109 106 100 94 85 72 62 58 60 64 67 75 82 83 82 74 61 59 52 49 33 23 12
116 113 112 108 104 103 106 108 103 101 100 97 95 94 89 83 88 96 102 108 111 107 105 101 95 88 80 71 69 70 72 75 82 85 94 93 76 67 66 53 37 27 19
122 119 116 112 106 103 103 106 107 106 106 103 99 97 95 88 73 67 68 67 64 84 96 93 93 89 77 66 63 80 85 90 90 99 108 102 66 63 64 51 40 41 36
122 121 119 116 113 111 111 113 114 113 109 107 107 104 93 87 76 64 49 59 51 46 67 76 80 91 84 48 43 65 63 60 67 86 100 91 84 77 72 67 57 52 44
121 121 120 119 117 114 112 111 114 118 120 121 123 118 113 109 105 98 79 54 62 62 64 71 87 82 90 90 70 62 54 50 52 66 91 84 76 73 69 65 62 55 42